| time (UTC) | temp C | wind direction | speed KPH | gust KPH | rain 1hr cm | rain 24hr cm | rain mn cm | humidity % | barometer mb |
| 20260503021502 | 2 | 316 | 4.8 | 0.0 | 0.00 | 0.00 | 0.00 | 61 | 1009.9 |
| 20260503020001 | 2 | 316 | 4.8 | 0.0 | 0.00 | 0.00 | 0.00 | 61 | 1009.9 |
| 20260503014502 | 2 | 293 | 3.2 | 0.0 | 0.00 | 0.00 | 0.00 | 61 | 1009.9 |
| 20260503013002 | 2 | 293 | 3.2 | 0.0 | 0.00 | 0.00 | 0.00 | 61 | 1009.9 |
| 20260503011502 | 2 | 310 | 3.2 | 0.0 | 0.00 | 0.00 | 0.00 | 61 | 1009.9 |
| 20260503010001 | 2 | 310 | 3.2 | 0.0 | 0.00 | 0.00 | 0.00 | 61 | 1009.9 |
| 20260503004502 | 3 | 282 | 3.2 | 0.0 | 0.00 | 0.00 | 0.00 | 61 | 1009.9 |
| 20260503003002 | 3 | 282 | 3.2 | 0.0 | 0.00 | 0.00 | 0.00 | 61 | 1009.9 |
| 20260503001502 | 3 | 282 | 3.2 | 0.0 | 0.00 | 0.00 | 0.00 | 61 | 1009.9 |
| 20260503000002 | 3 | 281 | 4.8 | 0.0 | 0.00 | 0.00 | 0.00 | 61 | 1009.9 |
| 20260502234502 | 3 | 281 | 4.8 | 0.0 | 0.00 | 0.00 | 0.00 | 61 | 1009.9 |
| 20260502233002 | 4 | 281 | 4.8 | 0.0 | 0.00 | 0.00 | 0.00 | 61 | 1009.9 |
| 20260502231502 | 4 | 281 | 4.8 | 0.0 | 0.00 | 0.00 | 0.00 | 61 | 1009.9 |
| 20260502230002 | 6 | 281 | 4.8 | 0.0 | 0.00 | 0.00 | 0.00 | 61 | 1009.9 |
| 20260502224501 | 6 | 281 | 4.8 | 0.0 | 0.00 | 0.00 | 0.00 | 61 | 1009.9 |
| 20260502223002 | 6 | 281 | 4.8 | 0.0 | 0.00 | 0.00 | 0.00 | 61 | 1009.9 |
| 20260502221502 | 7 | 300 | 4.8 | 0.0 | 0.00 | 0.00 | 0.00 | 61 | 1009.9 |
| 20260502220003 | 7 | 300 | 4.8 | 0.0 | 0.00 | 0.00 | 0.00 | 61 | 1009.9 |
| 20260502214501 | 7 | 298 | 4.8 | 0.0 | 0.00 | 0.00 | 0.00 | 61 | 1009.9 |
| 20260502213002 | 7 | 298 | 4.8 | 0.0 | 0.00 | 0.00 | 0.00 | 61 | 1009.9 |
| 20260502211501 | 7 | 298 | 4.8 | 0.0 | 0.00 | 0.00 | 0.00 | 61 | 1009.9 |
| 20260502210002 | 8 | 298 | 4.8 | 0.0 | 0.00 | 0.00 | 0.00 | 61 | 1009.9 |
| 20260502204502 | 8 | 298 | 4.8 | 0.0 | 0.00 | 0.00 | 0.00 | 61 | 1009.9 |
| 20260502203002 | 9 | 304 | 4.8 | 0.0 | 0.00 | 0.00 | 0.00 | 61 | 1009.9 |
| 20260502201502 | 9 | 304 | 4.8 | 0.0 | 0.00 | 0.00 | 0.00 | 61 | 1009.9 |
| 20260502200002 | 10 | 288 | 3.2 | 0.0 | 0.00 | 0.00 | 0.00 | 61 | 1009.9 |
| 20260502194502 | 10 | 288 | 3.2 | 0.0 | 0.00 | 0.00 | 0.00 | 61 | 1009.9 |
| 20260502193002 | 10 | 288 | 3.2 | 0.0 | 0.00 | 0.00 | 0.00 | 61 | 1009.9 |
| 20260502191501 | 10 | 288 | 3.2 | 0.0 | 0.00 | 0.00 | 0.00 | 61 | 1009.9 |
| 20260502190002 | 10 | 288 | 3.2 | 0.0 | 0.00 | 0.00 | 0.00 | 61 | 1009.9 |
| 20260502184501 | 10 | 272 | 4.8 | 0.0 | 0.00 | 0.00 | 0.00 | 61 | 1009.9 |
| 20260502183002 | 10 | 272 | 4.8 | 0.0 | 0.00 | 0.00 | 0.00 | 61 | 1009.9 |
| 20260502181501 | 10 | 272 | 4.8 | 0.0 | 0.00 | 0.00 | 0.00 | 61 | 1009.9 |
| 20260502163001 | 11 | 240 | 3.2 | 0.0 | 0.00 | 0.00 | 0.00 | 61 | 1009.9 |
| 20260502161502 | 11 | 240 | 3.2 | 0.0 | 0.00 | 0.00 | 0.00 | 61 | 1009.9 |
| 20260502151502 | 11 | 260 | 3.2 | 0.0 | 0.00 | 0.00 | 0.00 | 61 | 1009.9 |
| 20260502123001 | 12 | 297 | 9.7 | 0.0 | 0.00 | 0.00 | 0.00 | 61 | 1009.9 |
| 20260502121502 | 15 | 240 | 3.2 | 0.0 | 0.00 | 0.00 | 0.00 | 61 | 1009.9 |
| 20260502114502 | 16 | 116 | 3.2 | 0.0 | 0.00 | 0.00 | 0.00 | 61 | 1009.9 |
| 20260502113002 | 16 | 116 | 3.2 | 0.0 | 0.00 | 0.00 | 0.00 | 61 | 1009.9 |
| 20260502111501 | 16 | 116 | 3.2 | 0.0 | 0.00 | 0.00 | 0.00 | 61 | 1009.9 |
| 20260502110002 | 16 | 116 | 3.2 | 0.0 | 0.00 | 0.00 | 0.00 | 61 | 1009.9 |
| 20260502104501 | 16 | 116 | 3.2 | 0.0 | 0.00 | 0.00 | 0.00 | 61 | 1009.9 |
| 20260502103002 | 15 | 122 | 3.2 | 0.0 | 0.00 | 0.00 | 0.00 | 61 | 1009.9 |
| 20260502101501 | 15 | 122 | 3.2 | 0.0 | 0.00 | 0.00 | 0.00 | 61 | 1009.9 |
| 20260502091501 | 13 | 154 | 3.2 | 0.0 | 0.00 | 0.00 | 0.00 | 61 | 1009.9 |
| 20260502071502 | 7 | 280 | 3.2 | 0.0 | 0.00 | 0.00 | 0.00 | 61 | 1009.9 |
| 20260502070002 | 7 | 276 | 1.6 | 0.0 | 0.00 | 0.00 | 0.00 | 61 | 1009.9 |
| 20260502064501 | 7 | 276 | 1.6 | 0.0 | 0.00 | 0.00 | 0.00 | 61 | 1009.9 |
| 20260502063001 | 4 | 273 | 3.2 | 0.0 | 0.00 | 0.00 | 0.00 | 61 | 1009.9 |
| 20260502060001 | 3 | 265 | 6.4 | 0.0 | 0.00 | 0.00 | 0.00 | 61 | 1009.9 |
| 20260502054502 | 3 | 265 | 6.4 | 0.0 | 0.00 | 0.00 | 0.00 | 61 | 1009.9 |
| 20260502053001 | 3 | 265 | 6.4 | 0.0 | 0.00 | 0.00 | 0.00 | 61 | 1009.9 |
| 20260502051502 | 3 | 265 | 6.4 | 0.0 | 0.00 | 0.00 | 0.00 | 61 | 1009.9 |
| 20260502050001 | 3 | 265 | 6.4 | 0.0 | 0.00 | 0.00 | 0.00 | 61 | 1009.9 |
| 20260502044502 | 3 | 261 | 6.4 | 0.0 | 0.00 | 0.00 | 0.00 | 61 | 1009.9 |
| 20260502043001 | 3 | 261 | 6.4 | 0.0 | 0.00 | 0.00 | 0.00 | 61 | 1009.9 |
| 20260502041502 | 3 | 261 | 6.4 | 0.0 | 0.00 | 0.00 | 0.00 | 61 | 1009.9 |
| 20260502040002 | 3 | 261 | 6.4 | 0.0 | 0.00 | 0.00 | 0.00 | 61 | 1009.9 |
| 20260502034502 | 3 | 261 | 6.4 | 0.0 | 0.00 | 0.00 | 0.00 | 61 | 1009.9 |
| 20260502033002 | 5 | 256 | 4.8 | 0.0 | 0.00 | 0.00 | 0.00 | 61 | 1009.9 |
| 20260502031502 | 5 | 256 | 4.8 | 0.0 | 0.00 | 0.00 | 0.00 | 61 | 1009.9 |
| 20260502030002 | 4 | 256 | 4.8 | 0.0 | 0.00 | 0.00 | 0.00 | 61 | 1009.9 |
| 20260502024502 | 4 | 256 | 4.8 | 0.0 | 0.00 | 0.00 | 0.00 | 61 | 1009.9 |
| 20260502023002 | 5 | 269 | 4.8 | 0.0 | 0.00 | 0.00 | 0.00 | 61 | 1009.9 |